Wind_Speed
55 54 53 52 51 52 52 51 52 52 52 52 52 52 52 51 51 50 50 49 48 48 49 51 53 56 58 58 57 55 54 54 53 49 48 52 53 50 52 54 55 58 60 62 63 64 64 65 65 67 68 68 69 70 72 72 73 73 71 67 62 60 60 60 62 62 62 63 64 65 65 63 59 56 55 52 49 49 53 63 67 56 45 42 40 42 45 43
53 53 53 54 55 55 55 55 55 55 55 56 56 56 56 56 55 54 53 53 52 51 51 51 52 53 55 58 58 57 56 55 54 51 53 55 52 50 53 54 55 56 58 60 61 62 63 65 66 67 67 67 67 69 70 71 72 71 70 67 62 61 62 63 64 63 65 66 66 69 68 64 59 56 54 52 51 51 56 66 65 53 47 43 41 45 46 42
54 55 56 57 58 59 59 59 59 59 59 60 60 60 60 60 59 59 58 57 56 54 54 54 54 54 54 55 56 57 58 57 55 54 57 57 53 53 53 53 55 55 55 57 60 61 62 64 66 67 67 66 66 67 68 68 69 69 68 65 62 64 66 66 66 65 65 66 71 74 67 60 57 55 54 52 51 53 61 67 59 51 48 44 43 45 46 41
58 59 60 62 63 63 64 64 64 64 64 64 64 64 64 64 63 63 62 62 60 58 58 58 57 57 56 55 54 54 56 57 57 57 59 57 55 55 54 53 54 54 56 57 58 58 61 63 64 65 66 66 66 66 66 66 66 66 65 62 62 67 68 67 68 68 67 69 75 73 62 57 56 55 53 52 56 57 62 65 55 49 47 44 44 45 44 40
62 63 65 66 67 68 69 70 70 70 69 69 69 69 69 68 68 67 67 66 64 62 62 62 61 60 60 58 56 54 54 55 56 58 59 58 57 56 56 55 54 54 56 57 57 57 59 61 62 63 63 64 66 66 65 65 66 65 62 60 62 66 66 67 69 70 71 73 74 69 60 56 54 54 54 58 64 61 64 67 58 50 47 46 45 44 43 39
65 66 68 70 71 72 73 73 74 74 74 74 74 73 73 73 72 71 71 70 68 67 66 65 65 63 63 62 59 56 55 54 54 55 58 59 58 57 57 57 56 55 55 56 58 57 57 59 60 60 61 62 63 64 65 67 67 64 62 61 62 64 64 66 68 71 73 73 71 65 59 55 52 52 58 66 66 62 68 70 59 49 47 46 43 43 42 37
69 70 71 73 74 75 76 77 78 78 78 78 78 77 77 77 76 76 75 74 72 71 69 69 69 67 66 64 62 60 57 56 55 55 56 57 57 57 58 59 58 56 55 56 57 58 58 58 57 58 60 61 61 62 64 67 67 65 62 61 63 64 63 64 68 70 71 70 67 62 59 58 55 56 62 68 65 63 70 69 55 48 47 44 43 42 39 34
72 73 75 76 77 79 80 81 81 82 82 82 82 81 81 80 80 79 78 77 76 75 73 72 72 71 69 66 65 61 59 61 61 58 57 57 56 56 57 58 58 57 57 56 56 57 59 59 57 57 59 59 60 61 62 65 66 64 62 61 63 64 63 64 67 67 66 65 62 60 62 62 58 58 63 66 65 67 70 64 51 47 47 45 44 39 34 31
77 78 79 80 81 82 83 84 85 86 86 87 87 86 85 85 84 83 82 80 79 78 76 75 74 73 71 69 67 62 63 68 66 60 59 58 56 55 55 56 56 57 57 57 56 56 57 58 58 58 57 58 60 61 62 62 61 62 62 62 64 64 64 65 66 64 62 59 57 59 61 62 59 58 62 65 67 70 68 60 51 47 45 44 42 34 31 34
83 84 85 86 87 88 89 89 89 90 90 90 91 90 90 89 88 87 86 85 83 81 80 78 77 75 73 71 67 64 69 73 67 62 61 59 58 57 55 55 55 55 56 57 56 55 55 57 59 60 59 58 58 59 61 60 58 59 60 62 64 65 64 65 65 61 59 55 53 57 57 59 58 56 61 65 68 69 64 58 52 44 40 40 39 34 35 38
89 90 92 93 94 95 95 96 96 96 95 95 95 94 94 94 93 92 91 90 88 86 84 82 80 78 75 73 67 67 75 73 67 65 62 61 62 60 58 56 55 55 56 57 57 56 55 57 59 60 60 57 56 57 58 58 58 58 57 59 62 64 64 64 62 59 59 55 51 54 55 56 55 54 58 63 68 66 59 55 49 42 39 40 40 40 41 43
93 94 96 97 98 99 100 101 101 101 101 101 100 99 98 98 97 96 95 94 92 91 89 86 84 81 78 75 69 73 79 73 69 68 64 66 67 65 62 59 58 57 58 58 58 58 57 57 58 58 58 57 57 56 56 57 58 57 56 56 57 60 62 62 61 59 59 55 51 53 56 54 51 52 56 61 65 61 52 49 47 43 42 46 47 47 48 51
95 96 97 98 99 101 102 103 104 104 105 105 105 104 103 102 102 101 100 99 97 95 93 91 89 85 81 76 74 81 82 74 71 68 66 70 70 68 66 63 62 61 60 59 59 60 59 59 58 56 56 57 57 56 56 57 56 56 55 53 53 55 56 58 60 59 59 55 51 55 57 53 51 53 55 58 59 53 45 42 43 43 44 49 50 49 51 52
94 94 95 96 97 98 100 101 102 104 105 106 107 107 107 107 106 105 104 103 102 99 97 95 92 90 83 77 80 86 83 76 71 67 68 73 73 71 69 66 65 63 61 60 59 60 60 60 58 56 55 55 56 57 57 56 54 54 52 49 49 50 49 54 58 59 59 55 53 58 57 53 54 54 53 54 52 46 40 36 39 43 46 50 50 49 50 50
90 90 91 92 93 94 95 97 98 100 102 103 105 107 108 109 109 109 108 107 106 103 101 98 95 93 86 82 87 89 83 78 73 71 74 78 77 73 70 69 66 63 62 61 60 59 59 60 58 56 55 55 56 56 56 55 52 51 48 45 47 47 46 50 54 56 58 56 56 58 55 54 57 54 52 51 46 42 38 34 37 42 44 45 46 47 48 47
85 85 85 86 87 88 90 91 93 95 97 99 101 103 105 107 109 110 110 110 109 106 104 101 99 96 90 88 91 90 85 82 78 77 79 79 77 74 72 72 69 66 64 63 62 60 59 58 57 56 56 55 54 53 55 53 50 47 45 45 47 46 46 48 50 53 56 56 58 57 53 56 56 53 52 49 45 41 36 33 37 41 41 41 43 46 46 45
80 80 80 80 81 82 84 86 88 89 91 93 95 98 100 103 105 107 109 110 109 108 106 104 103 99 93 93 96 92 89 86 81 80 80 79 77 76 75 74 72 69 67 66 64 61 59 57 56 57 56 54 52 52 52 49 46 46 45 46 46 46 46 47 48 50 52 55 57 55 53 55 54 52 52 49 46 40 34 34 37 40 39 39 42 45 46 45
75 75 75 75 76 78 80 81 83 84 85 87 89 92 95 97 98 101 104 106 107 108 107 107 105 101 98 99 100 96 94 89 83 82 82 80 79 78 76 75 74 72 70 68 64 62 59 56 55 56 55 53 51 49 46 43 45 47 47 46 46 46 47 47 48 48 48 52 56 54 53 54 52 52 52 50 47 39 34 36 38 39 39 39 42 46 46 47
70 71 71 71 72 73 75 76 78 79 80 82 83 85 88 90 91 94 96 98 101 105 107 107 106 103 103 103 103 100 97 92 86 84 83 82 81 80 78 77 75 74 71 67 64 62 60 57 54 51 50 50 50 47 43 43 45 47 48 48 47 48 48 48 49 48 47 51 55 53 53 53 52 53 53 51 47 39 36 38 37 38 40 42 45 46 47 48
66 66 66 66 66 67 69 70 71 72 73 75 77 79 81 82 83 85 87 89 93 99 103 105 104 105 106 106 105 102 99 94 89 85 85 85 84 82 80 78 76 74 71 68 65 64 62 57 52 47 47 49 51 48 45 46 46 46 48 49 49 49 49 49 49 50 48 48 52 52 53 54 52 53 54 51 46 40 39 39 37 38 42 45 47 47 47 48
63 62 62 62 61 62 63 64 65 65 65 66 68 70 73 74 75 77 78 80 85 90 96 100 102 104 106 107 107 105 101 96 91 87 86 86 86 84 81 79 76 73 71 69 67 66 62 55 49 48 49 51 52 51 50 50 48 46 48 50 50 49 49 47 48 51 48 44 49 52 53 54 53 54 55 50 46 43 42 40 37 39 43 46 47 47 48 49
59 58 59 59 59 58 59 59 59 58 57 58 59 61 63 64 66 68 70 73 78 82 87 92 96 101 105 107 108 107 103 98 94 91 88 87 87 85 82 79 76 73 73 72 70 66 59 52 51 52 51 51 52 53 53 52 48 47 48 49 48 48 48 46 48 52 47 41 46 51 53 56 55 55 53 49 46 45 44 42 39 40 42 45 45 48 50 50
55 54 54 54 54 53 53 53 53 52 52 52 52 53 54 55 56 57 60 64 71 74 77 83 89 96 103 106 107 107 104 100 96 94 91 89 87 86 83 80 77 75 74 72 69 65 58 54 55 55 54 52 52 53 54 51 48 46 46 46 45 47 47 45 47 52 47 41 45 50 54 55 53 53 50 47 48 47 46 45 43 42 43 44 44 47 51 51
53 51 50 50 49 48 47 46 46 46 46 46 46 46 46 47 47 48 50 54 62 68 71 76 82 89 98 103 105 105 103 101 98 96 94 90 88 87 84 81 79 77 74 71 70 66 60 59 60 59 56 54 52 53 52 49 46 45 45 43 44 47 47 47 48 51 49 45 45 50 54 51 48 49 49 48 49 49 49 48 46 45 44 44 44 46 50 51
49 48 46 45 44 44 43 41 40 39 39 40 40 40 39 40 41 42 43 45 53 63 66 70 75 81 93 100 100 102 103 101 98 96 94 91 89 87 85 84 81 77 74 72 71 68 64 63 63 61 59 56 53 52 49 46 47 47 45 41 44 48 48 49 50 52 51 45 43 47 50 46 44 46 47 48 51 52 52 52 50 48 46 45 45 46 48 50
45 43 42 40 39 39 38 36 35 33 33 33 34 34 33 36 37 38 39 40 49 58 58 63 71 78 89 94 96 100 102 100 98 96 94 92 90 88 87 85 81 78 76 74 72 70 67 65 64 61 59 57 54 51 48 47 50 48 43 42 45 48 49 50 50 52 51 45 42 44 46 46 44 44 46 49 53 54 54 54 52 50 47 44 45 45 47 49
43 42 40 38 37 36 35 33 32 30 29 28 28 29 29 32 34 34 36 40 49 54 53 59 69 77 86 90 92 97 98 98 99 98 96 94 92 90 88 85 82 79 78 76 73 70 67 66 65 62 60 57 52 48 46 48 50 47 44 46 46 47 50 50 50 52 52 47 44 42 45 49 46 45 46 49 54 54 53 54 54 52 48 46 46 45 47 49
44 43 40 38 36 35 33 30 29 28 26 25 25 26 27 29 31 33 37 43 50 52 52 59 68 76 82 83 85 91 96 100 102 99 97 96 94 91 87 85 83 81 79 76 71 69 69 67 65 62 60 55 50 48 47 49 50 48 49 49 47 48 50 50 52 54 52 49 44 39 43 47 45 47 49 48 50 52 52 54 56 55 51 49 49 48 48 49
45 42 40 36 33 32 30 27 26 25 23 23 24 24 25 27 30 35 40 46 51 52 53 59 66 73 77 78 81 89 98 102 102 100 100 98 94 90 87 85 84 83 81 76 72 72 72 68 65 64 60 55 52 51 49 49 49 51 53 51 49 49 50 53 55 54 51 47 40 36 40 44 43 47 51 47 46 50 52 55 58 59 55 52 52 51 51 50
44 40 37 33 29 27 26 24 22 22 21 21 22 22 24 26 30 34 40 46 50 52 55 60 65 71 74 76 80 88 96 100 100 100 101 99 95 92 89 88 86 84 81 77 75 74 72 69 68 64 59 57 56 54 51 49 51 55 55 52 50 50 50 53 53 52 48 40 34 34 38 42 43 46 49 48 47 50 53 56 58 60 57 54 55 55 53 51
42 37 34 31 28 24 21 19 19 19 18 18 19 21 22 24 28 32 37 43 47 51 54 58 63 68 70 74 80 86 92 97 98 98 99 99 97 94 91 90 87 84 80 77 75 73 72 71 67 62 60 60 59 56 54 52 54 56 53 50 51 50 50 51 50 49 44 37 37 38 39 43 43 42 45 48 49 51 53 55 58 60 58 56 57 57 55 54
40 36 33 31 29 25 20 17 15 15 15 15 16 18 20 21 24 27 31 37 42 46 50 54 60 64 67 72 78 83 89 94 96 96 98 98 96 93 90 87 84 81 78 75 72 71 71 70 67 64 63 62 59 57 56 53 53 54 51 50 52 51 48 48 47 44 39 36 38 38 39 44 40 38 43 47 49 50 52 54 58 59 57 56 58 58 56 55
39 36 33 31 30 26 22 19 15 13 13 13 13 15 17 18 19 22 25 31 35 40 44 49 55 60 64 70 75 79 84 90 93 95 97 97 95 92 89 86 83 80 77 74 73 72 71 70 69 67 64 61 59 58 55 51 51 51 50 50 52 50 45 43 41 40 38 36 36 36 41 44 39 37 43 47 50 52 53 53 55 56 56 56 57 56 55 56
41 37 34 33 32 30 25 20 16 13 11 10 10 12 13 14 15 17 20 25 30 34 39 44 49 54 59 66 72 76 79 84 90 94 96 96 95 92 89 86 83 80 78 76 74 73 71 70 67 64 61 60 58 57 53 51 51 50 49 51 52 48 43 40 40 42 41 38 38 39 41 42 39 38 43 49 51 53 53 52 51 51 53 55 55 55 54 54
42 38 35 34 33 31 25 19 15 12 11 9 8 9 10 11 11 13 16 20 26 31 36 41 46 51 56 62 68 73 76 80 86 92 94 94 92 90 87 84 81 79 78 76 75 73 70 68 65 64 62 61 59 57 55 53 51 50 51 51 49 46 43 44 46 46 43 40 40 39 38 41 42 38 42 48 49 50 51 50 48 49 51 54 55 55 54 54
43 38 36 35 33 30 24 17 13 11 9 8 6 6 7 8 9 10 14 19 24 30 36 40 45 49 54 59 65 70 74 78 83 89 91 91 90 87 85 83 81 79 77 75 74 72 70 68 68 67 64 62 60 57 55 53 49 50 50 48 47 48 48 48 47 44 41 39 40 38 37 42 43 39 40 45 46 46 47 47 48 50 52 54 56 56 55 54
44 40 36 35 34 31 24 17 12 10 7 5 3 3 6 8 9 10 13 17 22 28 34 38 42 47 51 55 61 66 71 76 81 86 89 90 88 87 85 83 81 79 77 75 73 71 71 72 71 68 64 62 59 56 55 53 50 50 48 45 50 53 50 47 45 42 40 39 39 39 39 44 44 38 35 38 43 44 44 46 50 53 53 54 56 57 56 54
47 42 38 35 34 31 25 17 12 9 7 4 1 4 8 10 11 11 13 17 22 27 32 35 39 44 48 52 58 63 68 72 77 83 87 88 87 86 83 82 81 79 77 76 74 73 74 74 72 68 64 62 60 59 59 55 52 51 49 49 52 50 45 44 44 42 40 39 41 41 42 45 43 35 32 36 41 45 46 48 51 54 55 55 56 57 57 56
48 44 39 36 33 31 26 18 13 9 7 5 4 7 11 13 14 14 16 19 23 27 31 34 37 41 45 49 55 61 66 69 74 79 83 85 85 84 83 82 82 79 77 76 75 75 74 72 70 67 65 65 64 63 59 54 51 52 52 52 49 45 44 45 45 42 40 41 42 42 43 44 40 34 35 39 42 45 48 49 50 53 55 56 56 57 59 58
49 44 40 37 34 30 25 20 13 10 8 5 5 9 12 15 16 17 18 20 23 27 30 33 35 38 42 46 51 57 63 67 71 75 79 83 84 84 83 83 81 78 77 75 74 74 73 70 68 67 67 66 64 60 57 55 54 53 53 50 45 44 46 47 46 44 42 41 42 42 43 43 41 37 38 41 43 46 48 49 50 51 53 54 56 58 59 59
49 45 41 37 34 30 26 21 14 9 8 6 6 10 13 16 17 18 18 20 23 27 29 31 34 37 40 43 48 53 58 64 69 73 78 82 83 84 84 82 80 78 76 75 75 74 73 69 67 66 65 64 61 60 59 58 56 54 52 48 43 43 45 45 45 43 41 40 42 43 43 44 44 41 40 41 43 43 46 48 50 50 50 52 54 57 58 58
49 45 40 37 34 30 26 22 16 10 8 7 7 10 14 16 17 17 19 21 23 26 28 30 31 34 37 40 44 49 55 62 67 71 76 81 82 83 82 81 80 77 75 74 74 73 71 69 66 63 62 63 63 62 61 58 55 53 52 48 44 43 44 43 43 42 41 42 44 45 45 47 48 43 40 41 41 41 44 47 50 50 51 53 54 55 55 55
50 46 41 36 33 30 27 22 17 11 8 9 8 10 14 16 17 17 17 20 23 26 28 29 30 31 34 37 42 48 54 60 65 70 74 79 81 82 82 82 81 78 76 74 73 71 69 67 65 62 62 64 64 62 60 56 54 52 50 48 46 45 44 44 44 44 45 45 46 46 45 47 47 43 40 39 40 42 44 47 50 52 53 54 54 54 55 54
49 46 41 37 33 30 27 22 17 12 8 9 9 10 13 15 17 17 17 18 22 25 27 29 29 30 33 37 41 47 53 58 63 67 71 75 79 81 83 82 80 77 76 75 73 71 68 65 63 62 64 65 63 61 58 54 52 50 49 48 47 44 45 46 48 48 47 46 46 45 45 47 47 43 40 39 41 43 44 47 50 51 53 54 54 55 56 55
48 46 41 37 33 30 26 22 17 12 7 8 10 12 14 15 16 17 17 18 21 25 28 29 30 30 33 38 42 47 53 57 61 65 69 73 77 80 81 80 78 77 77 77 75 72 69 65 61 59 60 61 58 55 53 51 51 51 50 50 47 44 46 48 49 49 47 46 46 47 47 48 47 45 42 42 43 44 45 47 49 51 52 53 54 55 57 57
47 46 42 37 33 29 25 21 17 12 7 7 10 13 15 16 16 17 18 20 22 25 27 29 30 31 34 39 44 48 52 55 59 64 68 72 77 79 80 80 79 78 78 78 75 72 69 65 60 57 57 57 56 55 54 52 50 50 50 50 47 46 48 51 50 48 46 45 47 49 48 48 48 47 44 43 43 43 45 48 50 50 50 50 52 54 56 59
46 45 42 37 32 28 25 21 16 11 7 7 10 13 15 15 16 18 19 20 23 26 28 28 30 31 34 38 43 46 49 52 56 62 68 72 76 79 80 79 78 79 80 78 74 71 68 64 60 59 59 59 59 59 58 55 52 52 51 50 47 47 49 51 49 46 44 44 47 49 49 49 50 48 44 42 41 42 45 49 52 52 51 50 52 53 53 56
44 43 41 37 32 27 24 20 16 11 7 7 11 13 15 15 16 17 19 21 24 27 29 30 30 31 33 36 39 42 47 51 56 61 66 70 73 75 76 77 77 78 77 74 71 70 66 61 59 60 61 62 61 60 58 56 55 55 53 50 49 50 50 51 48 45 44 46 48 49 48 48 49 46 43 42 43 45 47 50 52 55 55 55 56 56 53 53
42 41 40 36 32 27 23 20 16 12 7 7 10 13 14 16 16 17 18 21 25 28 30 31 31 31 32 33 35 38 42 47 52 56 60 65 68 70 72 74 75 75 72 69 67 67 64 61 59 59 60 62 62 60 58 56 55 54 52 52 53 52 51 50 48 46 46 49 50 48 47 48 47 44 43 43 45 47 50 51 52 54 55 56 56 57 56 54
39 39 38 36 32 27 22 19 16 12 9 7 8 11 14 15 16 16 17 19 23 28 31 31 31 31 32 33 34 36 38 42 45 49 53 58 63 66 68 69 70 71 69 67 66 65 63 61 60 59 59 60 60 58 57 56 55 53 52 53 53 50 48 48 47 48 49 50 51 49 48 48 46 44 45 44 44 47 49 51 52 53 54 55 55 56 57 56
37 36 36 34 31 27 22 19 16 13 10 7 7 9 12 14 15 17 18 19 23 27 30 31 32 32 32 34 34 36 38 41 43 46 50 53 57 61 64 66 67 67 66 65 65 63 61 59 59 59 58 58 57 56 55 55 54 52 51 52 50 48 48 48 48 50 50 49 50 50 48 47 46 46 46 45 44 46 47 49 52 53 53 53 54 56 56 56
35 34 33 32 29 26 22 18 16 13 11 9 8 8 10 13 15 17 19 21 24 28 30 32 33 32 32 34 35 35 37 40 43 46 49 52 55 58 60 63 65 64 62 62 61 59 58 58 58 58 59 57 57 56 55 53 51 50 50 50 48 46 47 47 47 47 47 48 48 47 46 46 47 48 48 46 45 45 45 47 50 52 53 52 52 53 55 55
Wind_Direction
277 275 273 271 269 269 269 268 267 265 263 261 259 257 256 256 255 255 256 256 255 255 255 254 253 251 251 250 249 249 249 249 249 248 249 248 246 244 245 245 243 243 243 242 241 240 239 240 240 240 240 241 241 242 242 242 243 244 244 244 243 242 242 242 241 240 239 238 238 239 240 239 239 241 242 243 244 246 247 249 251 251 251 251 252 254 254 256
276 274 272 271 271 271 270 269 268 266 265 263 261 259 258 257 256 256 255 255 255 255 254 254 254 253 251 250 249 249 249 249 248 247 247 247 246 245 245 245 244 244 244 244 243 241 240 240 240 240 240 241 241 242 242 242 243 244 244 244 243 243 242 241 241 240 240 241 241 240 238 239 240 241 243 245 245 247 248 249 250 250 249 249 251 254 256 258
276 274 273 272 272 272 271 270 268 267 265 264 263 262 260 259 257 256 255 254 254 255 254 254 253 253 252 251 250 249 248 248 248 247 247 247 247 246 246 246 246 244 244 244 244 242 241 240 240 240 240 241 241 242 243 243 243 243 244 243 243 243 242 241 241 240 240 241 242 241 239 240 243 243 244 246 246 246 248 249 248 248 248 249 251 255 259 261
276 275 273 272 272 271 270 269 268 267 266 264 263 262 261 260 258 257 256 254 253 253 254 254 253 252 251 250 249 248 248 248 247 247 247 247 247 247 247 247 247 245 245 245 244 243 242 241 241 240 240 240 241 242 243 243 244 243 243 242 242 242 241 241 241 241 240 240 242 243 241 241 243 245 245 245 245 244 248 251 249 247 249 250 252 255 259 263
276 275 274 273 272 271 270 269 268 267 265 264 263 262 261 260 259 258 256 255 253 252 252 254 253 252 251 249 248 248 248 247 246 246 248 247 246 247 247 246 247 246 245 245 245 244 243 242 241 241 240 240 240 241 242 243 243 242 242 240 240 241 241 241 241 241 241 240 243 244 242 240 242 245 246 244 243 243 248 251 249 248 251 252 253 256 259 262
278 276 275 274 273 272 271 270 269 268 266 264 263 261 260 259 258 258 257 255 254 252 251 253 253 252 250 249 247 246 246 247 246 246 247 246 246 246 246 246 246 246 245 245 244 244 244 243 242 241 241 240 240 240 241 241 241 240 240 239 240 240 240 240 241 241 242 242 244 245 244 242 241 243 244 244 244 244 248 250 250 250 252 254 254 256 258 260
278 277 275 274 273 272 271 270 269 268 267 265 264 262 260 259 258 257 256 255 254 253 251 252 253 251 250 248 246 245 245 246 245 245 246 245 244 244 245 246 245 245 245 245 244 244 244 243 243 242 241 240 240 239 239 240 240 239 239 239 240 240 240 240 241 241 242 244 245 246 246 243 239 239 242 246 247 246 247 249 250 251 253 254 254 254 257 260
277 275 274 273 271 270 270 269 268 267 266 265 264 263 261 259 258 256 255 254 253 252 251 251 251 251 249 247 245 244 244 245 243 242 244 245 244 243 244 245 245 245 245 245 245 243 243 243 243 242 241 240 240 239 239 239 239 239 238 239 240 240 240 240 241 241 242 244 245 245 245 243 239 238 242 246 248 246 247 249 249 250 252 252 252 255 261 265
278 276 274 272 271 269 268 267 266 265 264 263 262 261 260 259 258 256 255 253 252 251 250 250 249 249 248 247 245 243 243 244 241 239 242 244 244 244 244 245 246 245 245 245 244 244 243 243 243 243 242 240 239 239 239 239 239 239 237 237 239 240 240 240 241 242 242 243 244 244 244 244 241 240 244 246 246 246 248 250 248 247 250 253 254 255 258 258
279 277 275 273 271 270 268 266 265 263 262 261 261 260 259 258 257 256 255 253 252 250 249 248 248 247 247 246 245 243 242 243 241 239 240 243 245 245 244 245 246 245 245 244 244 244 243 242 241 241 240 240 240 240 240 239 239 238 237 236 238 239 240 241 241 242 243 241 242 244 244 245 243 240 244 246 246 246 247 249 248 247 250 256 258 254 249 248
279 276 274 272 271 269 267 266 264 263 261 259 258 257 257 256 255 255 254 253 252 251 249 247 246 246 245 245 244 244 243 242 240 239 239 242 244 244 243 243 244 245 244 244 243 243 242 242 241 240 240 241 240 240 240 240 239 238 237 236 237 239 240 241 242 242 243 241 240 243 244 244 243 240 242 245 247 246 246 250 251 248 245 246 246 244 241 237
279 276 274 272 270 268 266 264 263 261 260 259 257 255 254 254 253 253 252 251 251 250 249 248 246 244 244 244 243 244 243 241 240 238 238 240 241 241 241 240 241 241 242 242 242 242 241 241 241 240 240 240 240 241 241 240 239 238 237 236 237 238 239 241 242 242 243 241 238 241 242 242 241 239 240 243 247 247 247 250 251 246 241 239 236 234 234 230
280 277 275 273 270 268 266 264 262 260 259 257 256 254 253 251 250 250 250 249 249 248 248 248 247 245 243 242 242 243 242 240 239 238 237 239 240 239 239 238 238 238 239 239 240 241 241 240 240 240 240 239 240 240 240 240 239 239 237 236 238 239 239 241 241 241 241 239 237 238 240 240 239 239 240 243 248 250 248 247 249 245 238 236 233 231 231 229
282 280 277 275 272 270 267 265 263 261 259 257 255 253 252 250 249 248 247 247 247 246 246 246 246 245 243 241 240 242 242 240 239 238 238 239 239 238 237 237 237 238 239 239 239 240 240 240 240 239 239 240 239 239 240 240 240 240 239 238 240 241 240 241 240 239 239 237 235 236 237 237 238 238 240 244 247 249 245 241 242 240 234 232 230 229 230 230
284 281 279 276 274 271 269 267 264 262 260 257 255 253 251 250 248 247 245 244 244 244 244 244 244 244 243 241 240 241 241 240 238 237 236 237 237 236 237 237 237 238 240 240 241 241 241 241 240 239 239 239 239 239 240 241 241 242 242 239 240 241 239 240 239 238 238 236 234 235 235 235 236 237 239 243 244 244 241 233 232 234 232 230 226 225 226 227
286 283 280 278 275 273 270 268 265 263 260 258 256 254 252 250 248 247 245 244 243 242 242 242 242 242 241 240 241 241 240 238 236 236 236 236 237 236 236 236 236 236 237 239 240 240 241 241 240 240 239 239 239 240 240 241 242 243 242 240 239 239 238 239 240 237 236 235 234 234 233 233 235 235 237 240 241 240 238 231 228 230 230 227 222 220 221 221
288 285 282 279 276 273 270 268 265 263 261 259 257 255 253 251 249 247 246 244 243 241 240 239 240 240 239 239 240 240 239 237 235 235 236 236 237 236 235 235 235 234 235 237 238 239 240 241 240 240 239 239 239 240 241 241 243 243 241 240 239 238 238 239 240 238 235 234 235 233 232 233 234 234 235 236 238 237 234 229 226 226 226 223 218 215 214 213
290 287 283 280 277 273 271 268 266 264 262 259 257 255 254 252 250 247 246 244 243 242 240 238 238 237 236 236 238 239 238 237 234 234 235 235 236 236 235 235 235 234 233 234 236 238 240 241 241 240 240 240 240 241 242 242 241 240 239 238 237 236 237 238 239 237 234 234 234 232 231 232 232 232 233 233 234 233 229 227 224 223 221 217 213 209 209 210
292 288 285 282 279 276 273 270 268 265 263 261 259 256 255 253 251 249 247 245 243 241 240 239 237 235 233 235 237 237 237 237 235 233 234 234 235 235 235 235 234 234 233 233 235 237 239 240 241 242 242 242 242 240 240 240 238 236 236 236 235 234 234 235 237 236 232 232 232 230 230 231 229 230 231 229 230 228 225 226 223 219 216 212 210 206 207 209
294 291 288 285 282 279 276 273 271 268 266 263 261 259 256 255 253 250 248 246 242 240 239 238 237 234 232 233 235 235 236 236 235 233 232 233 233 234 233 234 234 234 234 233 233 235 237 238 240 242 242 241 241 239 237 237 236 233 233 234 233 233 233 234 237 237 232 231 233 229 228 229 227 228 229 227 225 224 223 225 221 217 214 213 211 207 206 207
298 295 292 289 285 282 279 276 274 272 269 267 264 261 258 256 254 251 249 246 243 240 238 237 235 233 232 231 232 233 233 233 234 233 232 232 233 233 233 233 233 233 233 233 232 233 234 235 238 239 239 238 238 236 234 234 233 232 232 232 232 233 234 234 237 239 233 230 233 230 227 227 225 225 227 225 221 219 221 222 220 217 216 215 213 209 207 206
301 297 294 290 287 284 282 279 277 275 273 269 266 263 260 258 254 252 249 245 243 240 237 236 233 231 231 230 230 231 231 230 231 231 231 231 232 233 233 233 232 232 232 231 231 231 232 233 236 237 237 237 236 235 234 233 231 231 232 232 232 234 235 234 236 240 234 227 232 233 228 225 223 224 225 223 219 216 219 221 218 218 218 217 214 210 210 210
304 299 295 292 289 287 284 282 280 277 274 271 267 264 261 258 254 251 247 244 242 240 237 235 232 229 229 229 228 229 229 228 228 228 229 228 229 230 231 232 232 231 231 231 231 230 229 231 234 235 236 236 236 235 235 233 232 233 234 233 233 234 236 234 236 240 236 227 229 231 230 226 223 225 224 222 220 215 217 219 217 217 218 218 215 212 213 212
308 303 300 297 295 292 288 285 282 279 276 272 268 264 259 256 252 248 244 240 239 238 234 232 230 228 228 227 227 227 227 226 225 226 227 227 226 227 228 229 230 231 231 230 230 228 226 228 231 232 233 235 235 236 235 234 233 235 235 234 232 233 234 233 234 238 236 228 226 230 232 227 222 225 223 220 220 215 215 218 218 217 218 218 217 214 214 215
311 308 305 303 300 297 294 291 286 281 277 273 268 263 258 253 248 243 239 234 235 235 230 228 228 225 226 226 225 224 225 224 223 224 226 226 226 225 226 227 228 228 229 229 228 226 224 226 229 230 231 232 232 234 234 233 234 234 233 233 232 231 232 232 232 237 236 229 226 230 234 229 221 224 223 220 220 217 214 217 218 217 217 218 218 216 216 217
317 314 311 309 306 301 298 295 291 286 279 274 268 263 256 249 243 236 232 227 229 231 225 223 224 222 224 224 222 221 222 221 220 221 222 224 225 224 224 225 226 227 227 227 226 225 223 224 228 229 231 232 232 233 232 231 233 232 231 232 232 231 232 232 232 235 237 230 224 225 230 228 218 219 223 220 219 218 215 216 218 217 216 218 220 218 217 218
324 322 319 316 312 307 303 301 296 289 283 275 268 261 253 245 239 230 224 220 223 225 219 218 220 219 220 221 219 218 218 218 218 218 219 221 223 222 223 223 224 225 226 226 225 224 223 223 226 227 229 231 232 234 233 232 232 231 230 231 231 231 231 232 232 234 235 231 223 219 224 225 215 213 219 219 218 218 216 215 217 217 216 218 221 220 220 220
331 327 324 321 316 312 309 305 298 290 284 275 267 258 249 241 233 224 216 214 218 217 213 213 216 217 218 218 217 215 215 216 215 215 216 219 221 221 221 222 223 224 225 226 224 223 223 222 224 226 229 230 232 234 234 233 232 231 230 230 229 230 230 231 232 233 234 231 226 220 224 227 217 212 217 218 218 218 217 216 217 218 217 219 221 221 223 223
334 330 326 323 319 316 313 309 299 290 283 274 265 255 246 237 228 221 213 212 214 212 209 210 213 215 215 214 213 213 213 214 213 212 213 216 218 219 219 219 221 223 224 224 222 222 221 220 222 224 226 228 230 232 232 232 231 231 231 229 228 229 228 229 231 232 233 231 227 224 226 229 222 215 216 216 216 218 218 218 218 218 218 219 222 223 224 223
336 332 328 326 325 323 320 314 302 291 280 270 263 254 245 235 227 222 216 214 213 210 208 208 210 213 212 210 210 211 212 213 212 212 212 213 215 216 217 217 219 221 222 222 221 221 220 219 220 221 223 225 228 229 230 230 229 230 230 229 229 230 229 230 232 234 235 231 229 230 230 230 223 217 217 215 214 216 217 218 219 219 217 218 222 224 225 223
339 336 333 334 336 334 331 322 307 292 280 269 262 254 247 238 230 224 219 217 215 212 210 208 209 211 210 208 209 209 210 211 211 210 211 213 213 214 215 216 217 218 220 221 222 221 220 219 219 220 222 224 226 227 228 228 228 230 230 229 231 231 231 231 232 235 234 228 226 227 228 229 222 214 215 217 214 214 216 218 220 220 217 218 222 225 226 225
343 341 342 344 344 343 343 336 316 296 282 270 261 253 248 243 235 228 223 220 217 215 213 210 209 210 208 207 208 208 208 209 208 208 210 212 213 214 215 216 216 218 219 221 222 222 221 220 219 219 220 222 225 227 228 229 230 232 230 229 232 233 232 234 235 237 237 230 227 225 228 230 223 211 213 218 217 215 216 217 219 219 217 218 223 226 226 226
348 347 349 351 351 350 352 349 331 306 288 272 260 251 245 241 236 229 224 221 219 216 215 213 211 211 208 205 207 208 208 208 206 207 208 210 211 213 214 215 215 216 217 219 221 221 220 219 219 219 220 222 224 227 229 231 234 234 232 231 234 233 233 237 239 240 239 234 229 225 228 232 226 214 213 217 218 217 217 217 218 219 217 218 223 227 227 227
353 352 354 357 356 353 353 352 340 318 298 278 260 247 241 236 231 225 220 218 217 215 214 212 211 211 209 206 205 207 208 207 205 205 207 208 209 210 211 213 214 214 215 216 218 219 219 219 219 220 221 223 225 228 229 231 233 234 232 232 233 233 232 235 237 237 236 233 229 224 226 232 228 217 214 216 218 218 217 216 218 220 219 221 225 227 228 228
356 356 359 1 359 354 351 354 351 333 312 290 263 241 232 228 222 217 213 210 210 210 209 208 208 209 209 207 205 205 206 206 206 205 206 207 208 209 210 212 213 214 215 216 217 217 217 217 218 219 221 222 224 226 228 230 232 233 232 231 233 233 231 231 232 232 231 228 229 226 224 230 230 219 215 216 218 220 218 214 217 221 221 223 226 227 228 229
360 359 1 4 2 356 352 357 4 355 333 307 275 235 212 206 202 202 201 199 201 203 205 205 205 206 207 207 206 204 203 203 205 205 205 205 206 207 208 210 212 213 214 216 217 217 215 215 216 216 218 220 222 225 228 230 232 235 234 232 232 232 229 230 231 232 230 227 229 228 224 228 230 222 217 217 216 219 220 215 216 219 222 223 225 226 228 230
3 2 3 6 4 359 356 1 12 13 2 336 293 215 183 176 178 184 187 190 193 198 203 204 203 204 205 204 205 204 202 202 203 203 204 204 204 205 206 208 210 212 213 215 216 216 215 215 215 215 216 219 221 224 228 229 229 233 234 232 231 231 228 229 232 233 231 229 229 229 226 228 229 221 216 217 215 215 217 217 217 219 223 225 226 227 229 231
5 4 6 9 7 1 357 2 13 22 27 26 74 157 157 158 164 168 171 180 186 192 199 202 202 203 203 202 202 203 202 202 202 202 202 202 202 203 205 207 209 210 212 213 214 215 215 215 215 215 215 217 218 221 224 225 226 230 232 231 231 232 231 231 233 233 232 230 228 228 228 230 229 219 209 212 213 211 212 215 218 221 224 226 226 228 229 230
5 5 7 10 11 6 359 -0 12 26 38 58 112 144 151 154 158 160 163 173 180 186 193 197 200 202 202 201 200 201 201 200 201 201 201 201 201 201 203 206 208 209 211 213 214 214 215 215 215 215 216 217 218 219 222 224 226 229 231 231 230 231 230 231 232 232 231 230 229 228 230 232 232 224 215 215 215 210 208 212 217 221 224 225 226 228 229 229
5 6 7 10 12 11 4 0 9 31 44 67 115 138 150 154 156 158 162 169 176 182 188 192 196 199 200 200 200 200 199 198 199 200 199 199 200 200 202 204 207 208 210 212 214 215 215 215 215 215 217 218 220 221 223 224 226 229 232 233 231 230 230 229 228 228 228 228 228 228 230 234 234 229 223 221 217 211 208 210 215 220 225 226 225 227 228 228
5 6 8 9 11 13 10 3 3 30 52 71 112 134 148 154 157 158 160 166 172 178 183 187 191 194 196 197 197 198 198 196 196 197 198 198 199 200 201 203 205 207 209 212 214 214 214 213 213 215 218 220 221 222 223 224 226 229 233 234 233 233 234 232 230 230 229 228 228 226 226 231 233 229 225 224 219 213 209 211 215 219 224 227 226 227 228 227
5 5 7 10 10 12 14 8 2 20 58 78 109 136 149 156 158 158 159 163 168 173 178 183 188 191 193 193 193 194 196 196 195 195 196 197 198 199 201 203 204 206 208 211 214 215 214 213 212 214 217 220 222 223 224 226 228 230 233 233 231 230 232 234 233 233 231 228 227 226 224 226 229 227 224 224 221 216 211 211 215 218 224 228 227 228 229 228
5 5 7 9 11 12 14 15 9 14 56 86 110 138 151 156 156 155 156 160 164 169 173 177 183 187 188 188 189 190 193 195 195 194 195 196 197 198 201 203 204 205 207 210 213 214 214 214 213 213 216 219 221 222 224 225 228 231 234 235 232 229 230 231 230 230 230 228 226 226 225 228 230 229 226 224 222 219 213 212 215 218 224 230 230 229 230 230
4 5 6 8 12 14 15 18 17 15 49 92 115 137 149 155 154 149 150 155 160 164 168 172 177 181 182 182 185 187 190 194 194 193 194 195 196 199 201 202 203 205 207 209 211 212 212 212 212 214 218 221 222 223 225 226 229 232 234 235 235 232 230 230 229 226 226 226 225 225 225 227 230 230 229 226 224 221 216 214 216 218 222 228 231 230 229 229
4 5 6 8 11 15 16 19 21 19 44 96 122 137 145 150 150 145 144 149 156 161 165 169 172 176 178 179 181 185 189 192 193 192 192 194 196 199 202 202 203 205 207 209 210 211 211 210 211 214 219 224 225 228 229 230 232 234 235 235 234 231 230 232 232 228 226 225 224 223 224 225 228 228 227 226 225 222 219 217 217 218 222 227 231 232 232 230
3 4 6 8 11 15 18 22 25 26 46 98 125 137 142 146 146 142 141 145 152 158 163 166 168 172 177 178 181 185 187 190 191 190 191 194 196 199 201 203 203 205 208 210 210 211 211 210 210 212 217 221 223 224 225 226 228 232 234 235 234 230 230 232 232 229 228 226 224 223 223 224 226 227 225 225 225 224 222 219 218 218 221 225 229 231 234 233
3 4 5 7 10 16 20 24 30 33 50 101 125 135 140 143 143 141 141 145 150 155 159 163 166 170 176 179 182 185 185 186 190 191 191 193 197 199 201 202 204 206 208 209 210 211 211 211 211 213 216 218 220 222 222 222 223 225 227 230 231 231 231 233 234 231 229 229 227 225 223 223 225 227 225 224 225 226 224 222 220 219 219 223 226 228 232 235
3 3 5 7 9 16 23 27 34 41 56 104 127 136 139 139 140 141 142 145 149 153 156 160 164 168 174 179 182 184 183 184 188 192 192 193 196 199 201 202 205 208 209 209 210 211 211 212 214 217 219 220 222 223 224 224 225 225 226 225 225 225 226 230 233 232 231 231 230 227 225 225 226 227 226 225 224 225 225 224 223 222 221 224 226 226 228 232
3 2 4 7 9 15 24 31 38 46 60 100 127 138 139 138 139 140 142 146 149 152 155 158 162 166 171 175 178 182 184 184 188 192 194 194 195 198 201 204 206 208 209 210 212 212 212 212 214 217 221 223 224 224 225 225 226 227 227 226 225 224 224 226 230 230 229 230 230 226 224 226 227 228 229 227 225 225 225 225 226 225 225 227 228 227 227 230
3 2 4 6 8 13 23 33 40 49 61 88 124 138 139 138 137 135 137 144 150 152 155 156 158 163 168 170 172 177 183 184 186 191 194 195 195 197 200 204 206 208 208 209 211 212 212 213 214 216 220 223 225 226 226 227 226 225 226 228 229 228 227 227 229 230 229 229 229 225 222 223 225 227 229 231 230 229 228 227 227 227 227 228 229 229 229 230
2 3 3 6 9 11 20 33 42 51 63 81 113 132 137 137 135 132 133 140 148 152 154 155 157 161 165 166 168 173 178 180 182 187 191 193 195 198 200 202 205 206 207 208 210 210 211 212 214 216 217 220 223 224 225 226 227 226 226 229 230 229 229 229 229 230 231 230 228 226 222 221 223 226 229 230 232 233 233 231 230 228 229 230 231 230 231 231
1 2 3 6 10 12 18 31 43 52 64 80 103 124 134 135 133 131 133 141 148 152 154 156 156 159 162 163 165 170 174 176 179 184 187 189 192 196 199 202 204 204 204 207 208 209 209 209 211 213 215 217 218 220 221 223 225 226 227 229 230 229 229 230 231 232 234 234 232 229 225 221 222 226 229 228 230 233 234 234 233 231 230 231 233 234 234 233
Height
10642 10641 10640 10639 10638 10638 10637 10637 10636 10636 10636 10636 10636 10637 10637 10638 10639 10640 10640 10641 10642 10643 10644 10644 10645 10645 10647 10648 10651 10654 10656 10659 10661 10667 10669 10663 10666 10673 10672 10672 10675 10676 10678 10681 10684 10688 10691 10694 10696 10697 10700 10704 10708 10710 10712 10716 10719 10722 10729 10740 10750 10757 10760 10760 10760 10765 10768 10766 10767 10768 10768 10773 10780 10785 10790 10797 10800 10800 10799 10788 10787 10809 10821 10823 10826 10827 10826 10830
10635 10634 10633 10631 10630 10630 10629 10629 10628 10628 10628 10627 10627 10628 10629 10630 10631 10632 10633 10633 10635 10636 10637 10637 10637 10638 10640 10641 10645 10648 10650 10652 10656 10661 10658 10655 10662 10666 10664 10666 10668 10670 10673 10675 10677 10681 10685 10686 10688 10691 10695 10699 10703 10704 10706 10710 10714 10719 10726 10735 10746 10751 10752 10751 10753 10758 10759 10760 10762 10758 10761 10771 10778 10785 10790 10793 10796 10797 10789 10778 10787 10808 10815 10818 10822 10821 10823 10829
10628 10626 10625 10623 10622 10621 10620 10620 10619 10619 10619 10618 10619 10619 10620 10621 10622 10623 10624 10625 10627 10628 10629 10629 10630 10631 10633 10634 10638 10641 10643 10646 10649 10651 10648 10650 10657 10658 10658 10661 10662 10665 10668 10669 10670 10674 10679 10679 10681 10685 10690 10694 10698 10699 10701 10705 10710 10716 10721 10731 10741 10741 10741 10744 10746 10750 10752 10755 10749 10745 10761 10774 10779 10783 10787 10790 10792 10790 10777 10771 10788 10804 10808 10814 10818 10817 10820 10825
10620 10618 10617 10615 10613 10612 10611 10610 10609 10609 10609 10609 10609 10609 10610 10611 10612 10614 10615 10616 10619 10620 10621 10621 10622 10624 10625 10627 10631 10634 10636 10639 10642 10642 10640 10645 10650 10651 10653 10655 10655 10660 10662 10662 10664 10669 10671 10673 10676 10680 10684 10689 10691 10693 10697 10701 10705 10710 10717 10727 10731 10728 10732 10737 10738 10742 10745 10744 10737 10743 10765 10774 10776 10780 10783 10784 10781 10779 10771 10769 10788 10800 10805 10811 10814 10814 10816 10821
10612 10610 10607 10606 10604 10602 10601 10599 10599 10598 10598 10598 10598 10598 10599 10600 10601 10603 10604 10606 10609 10612 10612 10612 10613 10616 10617 10620 10624 10627 10629 10631 10634 10635 10634 10638 10642 10644 10646 10648 10650 10653 10654 10656 10659 10662 10664 10667 10670 10674 10679 10683 10684 10688 10693 10695 10698 10704 10712 10719 10719 10719 10725 10729 10731 10734 10734 10735 10734 10745 10763 10769 10774 10777 10776 10773 10769 10774 10768 10764 10784 10798 10801 10806 10810 10811 10813 10817
10603 10601 10598 10596 10593 10592 10590 10589 10588 10587 10587 10586 10587 10587 10587 10588 10590 10591 10593 10595 10599 10601 10603 10604 10604 10607 10609 10612 10616 10620 10622 10624 10627 10628 10627 10630 10635 10637 10639 10641 10644 10646 10648 10651 10653 10656 10658 10661 10664 10669 10673 10675 10678 10683 10686 10686 10690 10698 10706 10710 10711 10713 10719 10722 10723 10725 10726 10730 10736 10746 10758 10766 10772 10772 10766 10759 10762 10772 10762 10758 10782 10796 10798 10802 10806 10808 10810 10814
10593 10590 10588 10585 10582 10581 10579 10577 10576 10574 10574 10574 10574 10575 10575 10576 10578 10580 10582 10584 10587 10590 10593 10594 10594 10597 10600 10603 10609 10612 10616 10617 10619 10620 10620 10622 10627 10630 10632 10634 10637 10640 10643 10645 10647 10650 10652 10655 10659 10663 10665 10669 10673 10676 10678 10678 10683 10693 10700 10704 10705 10707 10712 10715 10714 10717 10722 10728 10737 10746 10752 10757 10764 10763 10756 10752 10760 10765 10754 10757 10782 10793 10793 10797 10800 10804 10807 10812
10582 10579 10576 10573 10570 10568 10566 10564 10563 10562 10561 10561 10561 10561 10562 10563 10565 10567 10569 10572 10575 10578 10582 10583 10584 10587 10590 10596 10600 10606 10611 10606 10606 10612 10613 10615 10619 10623 10626 10628 10631 10634 10636 10638 10640 10643 10645 10649 10654 10656 10659 10664 10666 10668 10671 10672 10678 10688 10695 10697 10698 10700 10706 10707 10707 10713 10721 10727 10736 10742 10742 10746 10755 10756 10751 10751 10754 10752 10748 10761 10781 10787 10789 10791 10795 10802 10809 10812
10569 10566 10562 10559 10557 10554 10552 10550 10548 10548 10547 10547 10547 10547 10548 10550 10551 10553 10556 10559 10562 10565 10569 10571 10573 10575 10581 10586 10591 10601 10601 10590 10596 10606 10606 10609 10613 10616 10620 10622 10624 10628 10630 10632 10634 10637 10641 10644 10647 10649 10653 10656 10658 10662 10664 10668 10675 10682 10687 10690 10691 10694 10699 10700 10702 10710 10718 10725 10732 10733 10734 10739 10747 10751 10748 10746 10743 10741 10748 10761 10774 10782 10785 10787 10793 10803 10808 10807
10554 10550 10547 10544 10540 10538 10536 10533 10532 10531 10531 10531 10531 10532 10534 10535 10537 10539 10542 10545 10548 10553 10556 10560 10562 10564 10571 10575 10584 10594 10584 10577 10592 10601 10601 10604 10607 10610 10614 10616 10618 10621 10623 10625 10628 10632 10635 10637 10639 10641 10644 10649 10653 10657 10659 10665 10671 10674 10679 10683 10685 10689 10692 10695 10700 10708 10714 10722 10727 10726 10730 10733 10739 10746 10743 10736 10731 10734 10747 10758 10768 10780 10786 10788 10793 10798 10800 10800
10537 10533 10529 10525 10521 10519 10517 10515 10514 10512 10513 10513 10514 10516 10517 10519 10522 10523 10526 10529 10534 10538 10542 10547 10549 10554 10561 10565 10579 10581 10566 10573 10587 10591 10596 10598 10597 10601 10606 10609 10612 10614 10616 10619 10622 10625 10627 10629 10630 10634 10639 10645 10649 10651 10655 10661 10664 10667 10673 10677 10680 10684 10687 10691 10698 10705 10709 10716 10722 10721 10724 10727 10733 10739 10735 10726 10720 10729 10748 10758 10766 10778 10782 10782 10784 10784 10785 10786
10517 10512 10508 10504 10500 10498 10495 10494 10493 10492 10492 10493 10495 10497 10499 10502 10504 10507 10510 10513 10518 10523 10527 10533 10536 10543 10550 10557 10571 10563 10551 10568 10578 10582 10590 10586 10586 10591 10596 10601 10604 10606 10608 10611 10615 10617 10620 10621 10624 10630 10636 10640 10643 10646 10651 10654 10657 10662 10667 10672 10677 10679 10684 10689 10695 10700 10703 10710 10717 10716 10716 10721 10727 10729 10724 10717 10715 10730 10751 10758 10760 10768 10771 10771 10770 10770 10771 10769
10496 10490 10485 10481 10478 10475 10473 10472 10470 10470 10470 10471 10473 10475 10479 10482 10485 10489 10492 10496 10501 10507 10512 10517 10523 10530 10539 10552 10557 10542 10541 10561 10568 10576 10582 10576 10578 10583 10587 10593 10594 10597 10600 10604 10607 10609 10612 10615 10619 10625 10629 10633 10637 10642 10644 10647 10652 10657 10662 10669 10673 10675 10682 10687 10688 10693 10696 10703 10710 10708 10710 10717 10719 10718 10717 10715 10718 10733 10750 10754 10754 10758 10761 10760 10761 10763 10764 10763
10474 10468 10462 10458 10454 10452 10450 10449 10448 10448 10448 10450 10451 10453 10457 10460 10464 10468 10473 10478 10483 10490 10497 10503 10510 10516 10529 10544 10538 10524 10534 10552 10562 10571 10573 10566 10568 10574 10579 10584 10587 10591 10594 10597 10600 10602 10606 10609 10614 10620 10624 10629 10632 10635 10638 10642 10648 10653 10660 10668 10670 10674 10680 10680 10680 10686 10689 10697 10701 10699 10705 10711 10710 10712 10714 10715 10721 10733 10742 10748 10747 10745 10748 10750 10753 10758 10759 10762
10452 10446 10441 10436 10433 10429 10427 10426 10425 10425 10426 10428 10429 10432 10435 10437 10442 10446 10452 10459 10464 10474 10481 10488 10496 10502 10518 10530 10517 10514 10530 10543 10554 10559 10556 10552 10557 10566 10572 10575 10580 10585 10588 10591 10594 10597 10600 10603 10609 10615 10620 10623 10625 10630 10634 10639 10646 10650 10658 10666 10667 10669 10673 10672 10674 10680 10683 10690 10691 10693 10702 10703 10701 10708 10712 10713 10721 10727 10734 10740 10739 10735 10738 10744 10748 10752 10754 10756
10431 10426 10421 10416 10412 10408 10406 10404 10403 10403 10404 10406 10408 10410 10413 10416 10421 10425 10432 10438 10446 10457 10465 10475 10482 10488 10507 10512 10500 10508 10521 10529 10540 10543 10541 10544 10551 10560 10564 10566 10572 10577 10581 10584 10587 10592 10594 10599 10605 10610 10613 10617 10621 10627 10630 10636 10643 10649 10655 10659 10660 10664 10666 10666 10669 10673 10676 10681 10683 10689 10697 10694 10697 10706 10708 10711 10717 10722 10728 10733 10732 10730 10734 10739 10743 10747 10749 10751
10413 10407 10402 10397 10393 10389 10386 10384 10382 10382 10383 10385 10387 10389 10391 10395 10400 10406 10412 10419 10429 10439 10449 10459 10465 10476 10495 10494 10486 10497 10505 10513 10528 10531 10533 10539 10544 10550 10554 10558 10564 10569 10573 10575 10580 10586 10589 10595 10600 10604 10608 10613 10619 10622 10627 10635 10642 10645 10649 10652 10655 10658 10659 10661 10663 10666 10671 10674 10677 10685 10689 10689 10695 10702 10704 10708 10712 10717 10723 10726 10727 10727 10730 10734 10738 10742 10745 10748
10395 10389 10383 10379 10374 10371 10367 10365 10363 10363 10364 10366 10368 10370 10371 10374 10381 10388 10393 10402 10413 10422 10432 10441 10448 10465 10478 10472 10471 10482 10489 10500 10516 10521 10525 10532 10534 10539 10546 10551 10555 10560 10564 10569 10576 10581 10585 10591 10595 10599 10605 10610 10615 10620 10627 10634 10636 10638 10641 10645 10648 10651 10653 10656 10657 10660 10666 10668 10671 10678 10682 10685 10692 10696 10699 10704 10708 10714 10718 10720 10722 10724 10726 10729 10732 10737 10739 10741
10378 10372 10366 10362 10358 10354 10350 10348 10347 10346 10347 10348 10350 10353 10353 10356 10364 10370 10376 10387 10399 10406 10414 10422 10433 10451 10458 10455 10460 10468 10477 10490 10503 10511 10517 10521 10524 10530 10537 10542 10546 10552 10558 10565 10572 10576 10581 10586 10591 10598 10604 10609 10612 10617 10623 10625 10626 10630 10633 10637 10641 10643 10647 10649 10650 10654 10659 10661 10665 10673 10676 10680 10687 10691 10694 10699 10704 10710 10713 10715 10718 10719 10722 10725 10728 10732 10734 10735
10363 10357 10352 10347 10344 10340 10335 10333 10332 10331 10332 10333 10335 10337 10338 10341 10348 10355 10362 10373 10383 10389 10397 10406 10420 10434 10439 10442 10448 10455 10466 10479 10491 10502 10506 10509 10514 10519 10527 10533 10539 10546 10554 10562 10567 10570 10574 10581 10591 10598 10601 10603 10605 10610 10615 10615 10618 10623 10626 10631 10635 10638 10641 10644 10646 10647 10653 10657 10660 10666 10669 10673 10682 10685 10687 10694 10701 10706 10708 10711 10714 10716 10718 10720 10723 10727 10730 10732
10350 10344 10339 10334 10330 10326 10322 10319 10318 10318 10320 10321 10322 10323 10324 10328 10335 10341 10349 10359 10367 10374 10382 10392 10405 10417 10423 10429 10435 10442 10455 10470 10482 10491 10496 10500 10504 10510 10519 10526 10533 10543 10550 10555 10559 10562 10569 10580 10590 10592 10593 10595 10597 10602 10606 10607 10613 10617 10621 10624 10629 10634 10637 10641 10642 10640 10648 10656 10656 10659 10663 10667 10675 10678 10681 10690 10697 10701 10705 10708 10711 10712 10714 10716 10720 10723 10726 10728
10339 10333 10327 10322 10317 10314 10310 10308 10307 10307 10308 10309 10310 10311 10312 10316 10322 10328 10337 10346 10351 10358 10368 10378 10391 10403 10406 10413 10421 10428 10442 10458 10470 10478 10484 10490 10496 10505 10513 10519 10529 10537 10541 10545 10551 10558 10569 10580 10584 10584 10586 10588 10591 10595 10598 10602 10608 10612 10615 10620 10626 10630 10633 10637 10638 10634 10644 10654 10652 10653 10656 10660 10668 10673 10678 10687 10693 10698 10701 10704 10707 10708 10710 10713 10716 10719 10721 10724
10328 10321 10315 10310 10306 10303 10300 10298 10297 10297 10297 10297 10298 10299 10300 10304 10310 10316 10325 10334 10338 10345 10357 10366 10377 10387 10389 10397 10407 10415 10431 10447 10457 10464 10471 10479 10488 10496 10504 10513 10523 10527 10531 10540 10548 10557 10567 10574 10575 10576 10579 10582 10586 10590 10593 10599 10605 10609 10612 10618 10624 10626 10629 10634 10633 10631 10639 10648 10647 10647 10648 10655 10666 10672 10678 10684 10688 10693 10697 10699 10703 10704 10706 10709 10712 10715 10717 10720
10316 10310 10305 10300 10296 10293 10290 10289 10288 10288 10287 10287 10288 10289 10291 10294 10300 10307 10314 10322 10327 10332 10343 10351 10361 10374 10377 10382 10393 10406 10421 10435 10445 10452 10460 10469 10478 10485 10495 10506 10513 10518 10527 10536 10542 10551 10560 10563 10563 10567 10572 10577 10581 10584 10589 10596 10602 10606 10609 10615 10620 10621 10624 10628 10628 10625 10631 10639 10641 10641 10644 10654 10667 10671 10674 10679 10682 10688 10692 10694 10698 10699 10701 10705 10708 10711 10713 10717
10306 10301 10296 10292 10288 10284 10282 10280 10279 10279 10278 10278 10278 10279 10283 10286 10290 10297 10303 10312 10316 10315 10326 10338 10349 10362 10361 10364 10384 10400 10408 10421 10434 10443 10452 10461 10468 10477 10488 10495 10503 10513 10521 10528 10535 10544 10551 10552 10555 10561 10566 10570 10575 10579 10587 10594 10597 10599 10605 10612 10614 10615 10618 10620 10621 10620 10624 10634 10639 10639 10643 10654 10664 10667 10670 10675 10677 10681 10686 10688 10692 10694 10697 10701 10704 10708 10710 10713
10298 10293 10289 10285 10281 10276 10274 10272 10271 10271 10270 10270 10271 10272 10275 10277 10281 10287 10293 10301 10301 10300 10316 10329 10336 10344 10343 10352 10375 10384 10393 10412 10426 10434 10443 10451 10459 10468 10477 10485 10497 10507 10513 10519 10526 10534 10542 10546 10550 10557 10561 10565 10571 10576 10584 10588 10590 10595 10603 10606 10606 10609 10612 10613 10617 10616 10619 10629 10634 10636 10641 10648 10658 10663 10666 10669 10670 10675 10680 10684 10688 10691 10695 10699 10702 10705 10707 10709
10291 10286 10282 10278 10274 10270 10267 10266 10265 10264 10263 10263 10264 10265 10267 10269 10273 10279 10285 10289 10287 10291 10308 10317 10320 10325 10326 10338 10357 10371 10389 10406 10411 10420 10432 10439 10448 10458 10468 10480 10490 10498 10503 10509 10519 10530 10538 10541 10545 10551 10556 10562 10570 10576 10581 10584 10586 10593 10598 10597 10600 10604 10606 10608 10611 10611 10614 10621 10627 10633 10637 10641 10651 10657 10657 10660 10664 10670 10676 10681 10684 10687 10692 10696 10698 10701 10703 10704
10286 10281 10277 10272 10268 10265 10262 10261 10259 10257 10257 10257 10257 10259 10261 10263 10265 10270 10274 10276 10276 10284 10297 10302 10305 10309 10316 10331 10351 10369 10381 10383 10391 10409 10421 10427 10437 10449 10462 10474 10483 10489 10494 10503 10517 10526 10529 10534 10540 10547 10553 10561 10569 10573 10576 10578 10583 10589 10589 10590 10595 10598 10600 10604 10604 10605 10609 10614 10623 10632 10634 10638 10649 10652 10651 10656 10663 10669 10674 10677 10680 10682 10687 10691 10693 10696 10697 10698
10282 10276 10272 10268 10264 10261 10258 10256 10254 10253 10253 10252 10252 10253 10255 10256 10258 10261 10264 10265 10269 10278 10286 10291 10295 10300 10310 10328 10344 10354 10358 10363 10381 10397 10405 10415 10429 10442 10456 10466 10473 10479 10486 10499 10511 10514 10520 10530 10536 10541 10549 10558 10564 10566 10569 10574 10579 10581 10580 10584 10589 10591 10595 10596 10597 10601 10606 10612 10623 10631 10632 10636 10645 10647 10648 10655 10662 10666 10669 10671 10673 10676 10681 10686 10689 10690 10690 10693
10278 10273 10268 10265 10261 10258 10255 10252 10250 10248 10248 10248 10247 10248 10250 10251 10253 10255 10259 10261 10265 10272 10277 10282 10287 10292 10304 10320 10331 10339 10347 10359 10374 10386 10395 10407 10420 10433 10445 10453 10460 10469 10481 10493 10500 10505 10516 10524 10527 10536 10546 10553 10555 10558 10563 10568 10571 10570 10573 10580 10583 10586 10590 10591 10595 10600 10604 10615 10625 10627 10628 10632 10637 10641 10646 10652 10656 10658 10661 10665 10667 10670 10676 10682 10683 10683 10685 10689
10275 10270 10265 10261 10258 10255 10252 10250 10247 10245 10244 10244 10244 10245 10246 10248 10250 10253 10256 10259 10263 10268 10272 10278 10282 10289 10301 10314 10321 10329 10340 10350 10365 10380 10392 10400 10410 10422 10432 10441 10453 10465 10477 10486 10495 10504 10511 10516 10525 10535 10541 10543 10546 10552 10557 10561 10563 10563 10570 10577 10578 10581 10586 10588 10593 10598 10605 10615 10619 10619 10622 10625 10631 10639 10644 10646 10649 10652 10656 10660 10662 10666 10673 10678 10678 10678 10681 10685
10273 10268 10263 10258 10255 10253 10250 10247 10245 10243 10242 10242 10242 10243 10244 10247 10249 10252 10255 10259 10263 10268 10272 10277 10281 10287 10297 10307 10314 10323 10332 10343 10360 10376 10385 10395 10409 10420 10431 10443 10454 10465 10476 10486 10495 10501 10507 10515 10523 10528 10531 10536 10542 10547 10551 10556 10558 10561 10568 10573 10573 10578 10583 10588 10594 10599 10605 10612 10614 10617 10619 10620 10628 10638 10641 10641 10644 10648 10651 10654 10657 10662 10670 10674 10673 10673 10677 10680
10272 10267 10262 10257 10253 10250 10248 10245 10243 10241 10240 10240 10240 10241 10243 10246 10248 10251 10255 10259 10264 10268 10273 10277 10281 10286 10294 10303 10312 10321 10329 10340 10357 10369 10377 10390 10405 10416 10429 10440 10449 10461 10473 10482 10488 10493 10501 10509 10514 10519 10526 10534 10539 10543 10549 10555 10557 10560 10566 10570 10571 10576 10583 10589 10594 10597 10601 10606 10611 10614 10614 10616 10625 10633 10636 10637 10638 10642 10645 10650 10655 10660 10666 10669 10668 10669 10672 10675
10271 10266 10261 10256 10252 10249 10247 10244 10242 10241 10240 10239 10240 10241 10243 10245 10248 10251 10254 10258 10263 10268 10273 10279 10283 10288 10295 10302 10309 10319 10330 10341 10353 10362 10370 10384 10396 10409 10422 10433 10444 10456 10465 10472 10479 10487 10496 10504 10512 10520 10526 10531 10536 10541 10547 10552 10553 10557 10562 10565 10567 10573 10582 10587 10589 10590 10594 10600 10605 10607 10610 10614 10621 10627 10631 10632 10633 10637 10642 10648 10655 10659 10663 10664 10663 10665 10667 10669
10271 10266 10261 10257 10252 10249 10247 10244 10242 10241 10240 10240 10240 10241 10243 10245 10248 10251 10254 10258 10263 10268 10273 10277 10282 10288 10294 10300 10307 10315 10328 10341 10351 10358 10368 10381 10395 10410 10423 10433 10443 10452 10459 10467 10473 10482 10492 10502 10510 10515 10519 10526 10532 10536 10541 10544 10549 10552 10555 10559 10565 10572 10578 10579 10580 10583 10588 10594 10599 10604 10609 10612 10615 10622 10627 10628 10632 10636 10640 10648 10654 10657 10658 10657 10657 10659 10661 10663
10272 10267 10262 10257 10253 10251 10248 10245 10242 10242 10241 10241 10241 10242 10243 10246 10248 10251 10254 10257 10261 10266 10270 10275 10280 10285 10291 10299 10307 10314 10324 10336 10347 10356 10367 10380 10395 10409 10420 10429 10438 10447 10457 10464 10470 10480 10489 10496 10499 10504 10512 10519 10525 10531 10535 10540 10546 10547 10550 10559 10565 10566 10568 10571 10575 10581 10586 10591 10596 10601 10606 10606 10610 10618 10623 10626 10632 10636 10640 10648 10652 10651 10651 10650 10651 10654 10656 10659
10273 10268 10263 10258 10255 10252 10249 10246 10243 10242 10242 10242 10242 10243 10245 10247 10249 10251 10254 10257 10260 10265 10269 10274 10279 10284 10290 10298 10306 10315 10323 10331 10341 10352 10364 10377 10391 10403 10414 10424 10433 10443 10452 10459 10467 10476 10482 10486 10491 10500 10509 10514 10521 10528 10529 10535 10541 10542 10549 10557 10556 10555 10563 10570 10575 10579 10584 10589 10594 10597 10600 10602 10605 10613 10621 10626 10629 10633 10639 10644 10645 10644 10644 10644 10646 10649 10652 10655
10274 10269 10264 10260 10256 10253 10251 10248 10245 10243 10242 10242 10243 10244 10246 10247 10249 10251 10254 10257 10260 10264 10269 10274 10279 10284 10290 10297 10305 10314 10323 10331 10340 10350 10361 10375 10389 10401 10412 10421 10427 10437 10446 10453 10460 10466 10472 10479 10488 10498 10504 10509 10515 10519 10521 10530 10538 10540 10545 10548 10547 10555 10566 10570 10572 10577 10582 10587 10590 10593 10595 10597 10602 10611 10619 10621 10623 10628 10633 10636 10638 10638 10637 10638 10641 10644 10647 10650
10276 10271 10266 10262 10258 10256 10253 10251 10248 10245 10244 10243 10244 10245 10246 10247 10249 10251 10253 10255 10259 10263 10268 10274 10279 10285 10290 10297 10304 10312 10321 10332 10341 10350 10362 10376 10387 10399 10409 10415 10422 10433 10442 10447 10452 10459 10467 10476 10486 10494 10499 10502 10506 10511 10520 10530 10535 10535 10537 10540 10547 10556 10562 10564 10568 10573 10579 10582 10586 10589 10591 10594 10600 10608 10612 10614 10617 10623 10627 10630 10633 10632 10631 10632 10635 10637 10640 10645
10278 10273 10269 10264 10261 10258 10256 10254 10251 10248 10247 10246 10246 10247 10248 10249 10250 10251 10253 10255 10259 10263 10268 10274 10279 10285 10292 10298 10305 10312 10321 10330 10340 10351 10363 10374 10384 10394 10402 10409 10419 10430 10438 10443 10448 10456 10464 10474 10484 10490 10492 10497 10505 10514 10522 10527 10528 10529 10533 10540 10549 10554 10555 10559 10563 10568 10573 10578 10582 10586 10589 10592 10596 10601 10605 10606 10612 10618 10623 10626 10627 10627 10627 10628 10630 10632 10635 10640
10281 10276 10271 10267 10264 10261 10259 10256 10254 10251 10249 10249 10249 10249 10250 10251 10252 10253 10255 10257 10260 10264 10269 10275 10280 10286 10292 10298 10307 10315 10323 10330 10339 10349 10360 10370 10380 10390 10397 10406 10416 10426 10434 10438 10442 10450 10460 10471 10480 10486 10491 10499 10507 10512 10515 10519 10523 10527 10532 10540 10547 10551 10552 10557 10561 10566 10571 10575 10578 10582 10585 10587 10589 10594 10598 10601 10607 10615 10621 10623 10623 10624 10624 10624 10626 10627 10630 10636
10283 10279 10275 10271 10267 10264 10261 10259 10257 10254 10252 10252 10252 10251 10252 10253 10254 10255 10257 10259 10262 10266 10271 10276 10282 10287 10293 10300 10308 10316 10323 10331 10338 10346 10356 10366 10377 10388 10396 10404 10413 10423 10430 10432 10438 10448 10459 10468 10477 10485 10491 10495 10499 10503 10509 10516 10521 10524 10530 10537 10543 10547 10549 10555 10560 10564 10568 10571 10573 10576 10580 10581 10582 10589 10594 10597 10604 10611 10616 10619 10620 10620 10620 10619 10621 10624 10628 10633
10286 10282 10278 10274 10270 10266 10264 10262 10260 10257 10256 10255 10255 10254 10255 10256 10257 10258 10260 10262 10265 10268 10273 10279 10284 10290 10296 10302 10309 10316 10323 10330 10337 10345 10354 10364 10376 10385 10392 10398 10408 10418 10424 10428 10436 10446 10457 10467 10476 10483 10485 10486 10491 10498 10506 10514 10518 10522 10528 10534 10539 10543 10547 10551 10555 10557 10560 10563 10567 10572 10576 10577 10580 10586 10591 10595 10601 10606 10611 10614 10615 10616 10615 10614 10617 10621 10624 10628
10289 10285 10281 10277 10273 10269 10267 10264 10263 10261 10259 10258 10258 10258 10258 10259 10260 10262 10264 10266 10268 10271 10276 10281 10286 10292 10297 10303 10309 10316 10322 10328 10336 10345 10355 10366 10375 10382 10387 10395 10406 10415 10421 10426 10433 10443 10453 10464 10473 10478 10479 10482 10490 10498 10506 10514 10518 10522 10527 10530 10535 10540 10543 10544 10545 10548 10553 10558 10563 10569 10572 10574 10577 10583 10588 10592 10596 10601 10606 10609 10610 10611 10612 10611 10613 10616 10619 10623
10293 10288 10284 10280 10276 10273 10270 10268 10266 10264 10263 10262 10261 10261 10261 10262 10264 10265 10267 10269 10272 10275 10278 10282 10288 10293 10298 10303 10309 10315 10320 10328 10337 10346 10356 10366 10373 10379 10386 10394 10404 10411 10416 10420 10429 10439 10449 10459 10469 10476 10480 10486 10495 10502 10509 10514 10516 10518 10522 10525 10530 10536 10537 10537 10539 10544 10550 10555 10559 10563 10566 10570 10573 10577 10582 10587 10590 10596 10600 10603 10605 10608 10610 10610 10611 10612 10615 10618
10296 10292 10288 10283 10280 10276 10273 10271 10269 10268 10267 10266 10265 10265 10265 10266 10267 10268 10270 10272 10274 10277 10281 10285 10290 10295 10299 10303 10307 10312 10319 10328 10338 10346 10354 10362 10369 10375 10382 10391 10400 10406 10409 10416 10427 10438 10447 10458 10467 10473 10478 10484 10490 10494 10499 10504 10508 10513 10517 10520 10526 10530 10531 10531 10534 10540 10547 10551 10555 10557 10561 10566 10568 10571 10577 10583 10588 10592 10595 10597 10600 10603 10605 10606 10606 10607 10609 10612
10299 10295 10291 10287 10283 10280 10277 10275 10273 10272 10270 10269 10269 10269 10269 10270 10270 10271 10273 10274 10277 10280 10284 10288 10292 10297 10301 10304 10308 10313 10320 10330 10339 10345 10351 10358 10364 10371 10379 10389 10397 10400 10404 10415 10427 10437 10447 10458 10465 10468 10471 10476 10480 10483 10489 10496 10502 10505 10509 10515 10521 10525 10526 10527 10531 10538 10544 10548 10550 10553 10557 10562 10563 10568 10575 10581 10586 10589 10590 10591 10593 10596 10598 10598 10599 10602 10605 10608
10303 10299 10295 10291 10287 10284 10281 10279 10277 10275 10274 10273 10273 10273 10273 10273 10274 10275 10276 10277 10280 10282 10286 10291 10295 10299 10303 10307 10312 10317 10323 10329 10336 10342 10348 10356 10364 10372 10380 10387 10392 10398 10407 10419 10429 10437 10448 10458 10462 10464 10467 10470 10474 10480 10486 10493 10496 10500 10506 10511 10514 10517 10520 10524 10529 10535 10540 10541 10543 10548 10555 10559 10561 10566 10572 10577 10580 10582 10583 10584 10586 10590 10592 10593 10595 10598 10602 10605
10306 10302 10298 10295 10291 10287 10284 10282 10280 10279 10278 10277 10276 10276 10277 10277 10278 10279 10280 10281 10283 10286 10289 10293 10297 10301 10306 10311 10316 10322 10327 10332 10337 10343 10350 10358 10366 10374 10381 10386 10392 10400 10412 10422 10430 10438 10447 10453 10455 10458 10462 10465 10470 10476 10483 10488 10492 10498 10503 10506 10507 10511 10516 10521 10525 10529 10532 10534 10537 10545 10552 10556 10559 10565 10569 10571 10574 10576 10577 10579 10582 10585 10588 10590 10593 10596 10599 10603
10310 10306 10302 10298 10295 10291 10288 10286 10284 10283 10282 10281 10281 10280 10280 10281 10282 10283 10285 10286 10287 10290 10292 10296 10300 10304 10308 10313 10319 10325 10331 10336 10342 10349 10356 10363 10368 10373 10379 10385 10392 10401 10411 10419 10426 10434 10442 10447 10451 10454 10458 10463 10468 10475 10480 10484 10489 10495 10499 10501 10505 10511 10515 10519 10522 10524 10526 10528 10533 10540 10547 10552 10557 10562 10564 10566 10570 10572 10574 10576 10578 10581 10584 10588 10591 10594 10597 10600
10314 10310 10307 10303 10299 10296 10292 10289 10288 10287 10286 10285 10285 10285 10285 10286 10287 10287 10289 10290 10292 10294 10297 10300 10303 10307 10311 10315 10320 10326 10332 10338 10344 10351 10358 10365 10370 10375 10379 10384 10390 10399 10409 10416 10422 10431 10439 10444 10447 10450 10454 10459 10465 10471 10476 10480 10486 10492 10495 10498 10503 10509 10512 10515 10517 10519 10522 10525 10529 10535 10542 10549 10554 10557 10558 10562 10565 10567 10570 10573 10574 10577 10581 10584 10588 10590 10594 10597
10317 10314 10311 10307 10303 10300 10297 10293 10291 10290 10289 10289 10289 10289 10289 10290 10291 10291 10292 10294 10296 10298 10300 10303 10306 10310 10314 10317 10322 10328 10334 10339 10345 10350 10356 10362 10367 10373 10379 10383 10389 10398 10406 10412 10421 10430 10434 10438 10442 10446 10450 10455 10459 10464 10470 10477 10483 10489 10492 10495 10500 10505 10508 10511 10514 10517 10520 10522 10526 10533 10540 10546 10550 10552 10553 10557 10560 10562 10566 10568 10570 10573 10577 10581 10584 10587 10590 10593